This is the latest recevied weather packets stored in our database for station/object SP1BMW-13. If no packets are shown the sender has not sent any weather packets the latest 10 day(s).
| Time | Temp. | Humidity | Pressure | Rain* | Wind** | Luminosity | Snow |
|---|---|---|---|---|---|---|---|
| 1787548024 | 14.44° C | 91% | 1019.2 hPa | 0 mm | 0.45 m/s, 154° | 38 W/m² | - |
| 1787547964 | 14.44° C | 92% | 1019.2 hPa | 0 mm | 0.45 m/s, 141° | 45 W/m² | - |
| 1787547904 | 14.44° C | 92% | 1019.1 hPa | 0 mm | 0.45 m/s, 221° | 47 W/m² | - |
| 1787547845 | 14.44° C | 92% | 1019.3 hPa | 0 mm | 0.45 m/s, 248° | 48 W/m² | - |
| 1787547784 | 14.44° C | 92% | 1019.2 hPa | 0 mm | 0.45 m/s, 220° | 51 W/m² | - |
| 1787547725 | 14.44° C | 92% | 1019.4 hPa | 0 mm | 0.89 m/s, 255° | 50 W/m² | - |
| 1787547665 | 14.44° C | 92% | 1019.1 hPa | 0 mm | 0.45 m/s, 278° | 44 W/m² | - |
| 1787547605 | 13.89° C | 92% | 1019.1 hPa | 0 mm | 0 m/s | 37 W/m² | - |
| 1787547545 | 13.89° C | 92% | 1018.9 hPa | 0 mm | 0 m/s | 35 W/m² | - |
| 1787547484 | 13.89° C | 92% | 1019.2 hPa | 0 mm | 0 m/s | 33 W/m² | - |
| 1787547425 | 13.89° C | 92% | 1019.2 hPa | 0 mm | 0 m/s | 34 W/m² | - |
| 1787547365 | 13.89° C | 92% | 1019.2 hPa | 0 mm | 0.45 m/s, 262° | 34 W/m² | - |
| 1787547305 | 13.89° C | 92% | 1019 hPa | 0 mm | 0 m/s | 32 W/m² | - |
| 1787547245 | 13.89° C | 92% | 1018.8 hPa | 0 mm | 0 m/s | 27 W/m² | - |
| 1787547184 | 13.89° C | 92% | 1019.1 hPa | 0 mm | 0 m/s | 24 W/m² | - |
| 1787547124 | 13.89° C | 92% | 1018.8 hPa | 0 mm | 0 m/s | 21 W/m² | - |
| 1787547064 | 13.89° C | 92% | 1019 hPa | 0 mm | 0 m/s | 21 W/m² | - |
| 1787547004 | 13.89° C | 92% | 1019 hPa | 0 mm | 0.45 m/s, 321° | 22 W/m² | - |
| 1787546944 | 13.89° C | 92% | 1018.8 hPa | 0 mm | 0 m/s | 23 W/m² | - |
| 1787546884 | 13.89° C | 92% | 1018.9 hPa | 0 mm | 0.45 m/s, 258° | 25 W/m² | - |
| 1787546824 | 13.89° C | 92% | 1018.9 hPa | 0 mm | 0 m/s | 28 W/m² | - |
| 1787546764 | 13.89° C | 92% | 1018.9 hPa | 0 mm | 0 m/s | 28 W/m² | - |
| 1787546704 | 13.89° C | 92% | 1018.8 hPa | 0 mm | 0 m/s | 24 W/m² | - |
| 1787546644 | 13.89° C | 92% | 1018.9 hPa | 0 mm | 0.45 m/s, 277° | 24 W/m² | - |
| 1787546584 | 13.89° C | 92% | 1018.9 hPa | 0 mm | 0 m/s | 23 W/m² | - |
* Rain latest hour (hover to see other rain measurements)
** Current wind speed in m/s (hover to see current wind gust speed)